Location: Berlin
(3.6239°N, 75.6114°W)
Time: 20:13:22
(UTC+00:00)

Daily predictions for brighter satellites

Satellite Brightness Start Highest point End
(mag) Time Altitude Azimuth Time Altitude Azimuth Time Altitude Azimuth
ATLAS 5 CENTAUR R/B 2.9 22:58:58 10° N 23:04:27 39° ENE 23:10:45 10° SE
Cosmos 2034 Rocket 4.0 22:58:43 10° S 23:04:49 68° E 23:10:56 10° N
IRS-P3 4.4 23:01:16 10° SSE 23:06:21 47° ENE 23:11:25 10° N
Cosmos 968 Rocket 3.5 23:04:24 10° SSW 23:09:29 90° SE 23:14:37 10° NNE
SL-4 R/B 1.7 23:10:27 10° NNW 23:14:06 69° NE 23:17:56 10° SE
Landsat 7 3.9 23:10:27 10° S 23:15:06 84° WSW 23:19:44 10° NNW
SPOT 1/Viking Rocket 4.2 23:11:08 10° SE 23:15:40 32° ENE 23:20:12 10° NNE
SJ-6F 4.2 23:13:17 10° SSE 23:17:11 67° ENE 23:21:02 10° N
Ariane H10-3 2.3 23:15:53 10° WNW 23:18:10 40° N 23:21:13 11° ENE
Yuri Rocket 3.5 23:12:40 10° WSW 23:18:46 86° NNW 23:23:06 12° ENE
SJ-12 4.2 23:15:10 10° S 23:18:56 66° WSW 23:22:42 10° NNW
Tiangong -2.1 23:21:18 10° NW 23:24:25 58° NE 23:27:32 10° SE
Cosmos 1833 Rocket 4.0 23:25:11 10° NNW 23:30:29 45° WSW 23:35:49 10° S
SWIFT 3.1 23:27:50 10° SW 23:30:51 29° SSE 23:33:05 15° ESE
Cosmos 1741 Rocket 4.2 23:26:31 10° SSW 23:31:43 75° WNW 23:36:56 10° N
RESURS DK-1 2.8 23:28:47 10° N 23:32:25 36° ENE 23:36:05 10° SE
Cosmos 2279 Rocket 4.4 23:30:34 10° SSE 23:36:13 38° E 23:41:50 10° NNE
Cosmos 540 Rocket 3.3 23:31:46 10° N 23:36:50 71° ENE 23:41:52 10° SSE
Delta 2 Rocket 3.9 23:36:07 10° NNW 23:39:42 32° NE 23:41:14 23° ENE
Ariane H10+ 3.7 23:23:58 10° WSW 23:40:45 54° S 23:43:54 16° ESE
ARIANE 3 DEB 1.3 23:39:19 10° W 23:41:59 87° S 23:42:39 41° E
SJ-7 4.3 23:40:09 10° SSE 23:43:44 48° ENE 23:47:16 10° N
Cosmos 1763 Rocket 3.7 23:41:01 10° NNW 23:46:04 70° WSW 23:51:05 10° S
Cosmos 2026 Rocket 4.5 23:42:38 10° NNE 23:48:15 37° E 23:53:57 10° SSE
NOSS 3-2 (A) 4.4 23:48:46 10° SSE 23:51:44 17° ESE 23:51:44 17° ESE
Cosmos 1536 Rocket 3.7 23:48:25 10° N 23:52:46 74° W 23:57:04 10° S
NOAA 6 4.4 23:49:26 10° SE 23:54:15 40° ENE 23:59:01 10° N
